Weather History for Detroit Metro, MI

Change the Weather History Date:

Sunday, October 14, 2012

  Actual Average Record
Temperature  
Mean Temperature 63 °F 53 °F  
Max Temperature 70 °F 62 °F 83 °F (1975)
Min Temperature 56 °F 44 °F 27 °F (1937)
Degree Days  
Heating Degree Days 2 12  
Month to date heating degree days 176 142  
Since 1 July heating degree days 289 256  
Cooling Degree Days 0 0  
Month to date cooling degree days 2 7  
Year to date cooling degree days 1150 802  
Growing Degree Days 12 (Base 50)    
Moisture  
Dew Point 59 °F    
Average Humidity 82    
Maximum Humidity 97    
Minimum Humidity 66    
Precipitation  
Precipitation 0.14 in 0.08 in 1.78 in (2003)
Month to date precipitation 1.20 1.17  
Year to date precipitation 22.63 26.87  
Snow  
Snow 0.00 in 0.00 in T in (1986)
Month to date snowfall 0.0 0.0  
Since 1 July snowfall 0.0 0.0  
Since 1 September snowfall 0.0 0.0  
Snow Depth 0.00 in    
Sea Level Pressure  
Sea Level Pressure 29.70 in    
Wind  
Wind Speed 19 mph (South)    
Max Wind Speed 37 mph    
Max Gust Speed 44 mph    
Visibility 9 miles    
Events Rain , Thunderstorm    
T = Trace of Precipitation, MM = Missing Value Source: NWS Daily Summary

Daily Weather History Graph

Daily Weather History Graph

Search for Another Location

Airport:

Trip Planner

Search our weather history database for the weather conditions in past years. The results will help you decide how hot, cold, wet, or windy it might be!

Date:

Astronomy

Oct. 14, 2012 Rise Set
Actual Time 7:45 AM EDT 6:52 PM EDT
Civil Twilight 7:17 AM EDT 7:20 PM EDT
Nautical Twilight 6:44 AM EDT 7:52 PM EDT
Astronomical Twilight 6:12 AM EDT 8:25 PM EDT
Moon 6:43 AM EDT (10/14) 6:11 PM EDT (10/14)
Length of Visible Light 12h 03m
Length of Day
11h 06m
Waning Crescent, 1% of the Moon is Illuminated
Oct 14
Waning Crescent
Oct 15
New
Oct 21
First Quarter
Oct 29
Full
Nov 6
Last Quarter

Hourly Weather History & Observations

Time (EDT) Temp. Dew Point Humidity Pressure Visibility Wind Dir Wind Speed Gust Speed Precip Events Conditions
12:53 AM 61.0 °F 59.0 °F 93% 29.90 in 8.0 mi South 8.1 mph - 0.05 in   Mostly Cloudy
1:32 AM 60.8 °F 57.2 °F 88% 29.89 in 8.0 mi South 9.2 mph - N/A   Overcast
1:53 AM 61.0 °F 59.0 °F 93% 29.88 in 8.0 mi South 10.4 mph - N/A   Overcast
2:53 AM 64.0 °F 61.0 °F 90% 29.88 in 8.0 mi SSW 15.0 mph - 0.01 in Rain Light Rain
3:28 AM 64.4 °F 60.8 °F 88% 29.87 in 8.0 mi SSW 13.8 mph - 0.00 in   Overcast
3:53 AM 64.9 °F 61.0 °F 87% 29.87 in 8.0 mi SSW 13.8 mph - 0.01 in   Overcast
4:53 AM 64.9 °F 61.0 °F 87% 29.86 in 8.0 mi SSW 13.8 mph - 0.00 in   Overcast
5:53 AM 64.9 °F 61.0 °F 87% 29.86 in 9.0 mi South 13.8 mph - 0.01 in   Overcast
6:53 AM 64.9 °F 61.0 °F 87% 29.85 in 10.0 mi South 12.7 mph - N/A   Mostly Cloudy
7:53 AM 64.9 °F 61.0 °F 87% 29.83 in 8.0 mi South 12.7 mph - N/A   Mostly Cloudy
8:26 AM 64.4 °F 60.8 °F 88% 29.82 in 8.0 mi South 15.0 mph - N/A   Overcast
8:53 AM 64.9 °F 60.1 °F 84% 29.82 in 8.0 mi South 16.1 mph - N/A   Overcast
9:53 AM 66.9 °F 60.1 °F 79% 29.80 in 10.0 mi South 16.1 mph 26.5 mph N/A   Mostly Cloudy
10:53 AM 66.9 °F 59.0 °F 76% 29.77 in 10.0 mi South 17.3 mph 24.2 mph N/A   Mostly Cloudy
11:00 AM 66.2 °F 59.0 °F 78% 29.76 in 10.0 mi SSE 17.3 mph - N/A   Mostly Cloudy
11:53 AM 69.1 °F 59.0 °F 70% 29.71 in 10.0 mi SSE 24.2 mph 31.1 mph N/A   Mostly Cloudy
12:53 PM 70.0 °F 57.9 °F 65% 29.71 in 10.0 mi South 24.2 mph 33.4 mph 0.00 in Rain Light Rain
1:53 PM 68.0 °F 57.9 °F 70% 29.70 in 10.0 mi South 19.6 mph 29.9 mph 0.00 in   Overcast
2:53 PM 66.9 °F 57.9 °F 73% 29.67 in 10.0 mi South 21.9 mph 29.9 mph 0.00 in Rain Light Rain
3:53 PM 68.0 °F 60.8 °F 78% 29.62 in 10.0 mi South 19.6 mph 26.5 mph N/A   Overcast
4:53 PM 70.0 °F 59.0 °F 68% 29.58 in 10.0 mi South 21.9 mph 32.2 mph N/A   Mostly Cloudy
5:53 PM 70.0 °F 59.0 °F 68% 29.55 in 10.0 mi South 23.0 mph 31.1 mph N/A   Mostly Cloudy
6:53 PM 70.0 °F 57.9 °F 65% 29.52 in 10.0 mi South 17.3 mph 28.8 mph N/A   Mostly Cloudy
7:35 PM 66.2 °F 60.8 °F 83% 29.52 in 3.0 mi South 20.7 mph 27.6 mph 0.01 in Rain , Thunderstorm Heavy Thunderstorms and Rain
7:53 PM 64.9 °F 61.0 °F 87% 29.51 in 10.0 mi South 12.7 mph - 0.11 in Thunderstorm Thunderstorm
7:58 PM 64.4 °F 60.8 °F 88% 29.51 in 10.0 mi South 12.7 mph - N/A   Mostly Cloudy
8:53 PM 66.0 °F 60.1 °F 81% 29.49 in 10.0 mi South 17.3 mph - N/A   Mostly Cloudy
9:53 PM 66.9 °F 57.0 °F 70% 29.46 in 10.0 mi South 17.3 mph - N/A   Overcast
10:53 PM 64.0 °F 54.0 °F 70% 29.47 in 10.0 mi SSW 35.7 mph 43.7 mph 0.00 in   Mostly Cloudy
11:38 PM 60.8 °F 51.8 °F 72% 29.50 in 10.0 mi SW 27.6 mph 41.4 mph N/A   Overcast
11:53 PM 60.1 °F 51.1 °F 72% 29.50 in 10.0 mi SSW 27.6 mph 39.1 mph N/A   Overcast